Regional Weather Roundup
Issued by NWS Charleston, SC

Current Version | Previous Version | Graphics & Text | Print | Product List | Glossary On
Versions: 1 2 3 4 5 6 7 8 9 10 11 12 13 14 15 16 17 18 19 20 21 22 23 24 25 26 27 28 29 30 31 32 33 34 35 36 37 38 39 40 41 42 43 44 45 46 47 48 49 50
000
ASUS42 KCHS 291612
RWRCHS

REGIONAL WEATHER ROUNDUP
NATIONAL WEATHER SERVICE CHARLESTON SC
1200 PM EDT WED MAR 29 2017

NOTE: "FAIR" INDICATES FEW OR NO CLOUDS BELOW 12,000 FEET WITH NO
SIGNIFICANT WEATHER AND/OR OBSTRUCTIONS TO VISIBILITY.

NOT ALL STATIONS ARE QUALITY CONTROLLED. USE DATA WITH CAUTION...
ESPECIALLY DEWPOINT OBSERVATIONS.

SCZ027-030-031-034>040-042>050-291700-
...SOUTHEAST SOUTH CAROLINA...

CITY           SKY/WX    TMP DP  RH WIND       PRES   REMARKS
N CHARLESTON   MOSUNNY   78  53  41 VRB3      30.03S
WATERFRONT PRK   N/A     71  58  63 VRB2      30.02S
JOHNS ISLAND   FAIR      77  57  50 E8        30.04S
PINOPOLIS        N/A     66  61  82 NW5       29.97R
MONCKS CORNER  FAIR      73  52  46 NW5       30.04F
SUMMERVILLE    FAIR      75  52  43 N3        30.05S
BEAUFORT MCAS  SUNNY     77  58  51 E6        30.04S
BEAUFORT ARPT  FAIR      73  59  60 NE7       30.04F
HILTON HEAD IS NOT AVBL
WALTERBORO     SUNNY     77  52  41 CALM      30.05F
ALLENDALE      FAIR      77  52  41 E5        30.04F

...SOUTHERN MIDLANDS AND PEE DEE...

CITY           SKY/WX    TMP DP  RH WIND       PRES   REMARKS
GEORGETOWN     FAIR      77  54  44 SE6       30.05S
KINGSTREE      FAIR      75  50  41 N5        30.05S
ORANGEBURG     SUNNY     76  52  43 E5        30.06S
BARNWELL       FAIR      77  54  44 E6        30.05F
AIKEN          FAIR      73  52  46 N6        30.10S
MANNING        FAIR      75  52  43 CALM      30.05S
COLUMBIA       MOSUNNY   76  52  43 VRB6      30.06S
SUMTER         SUNNY     76  53  45 N6        30.04S
FLORENCE       SUNNY     74  57  55 VRB6      30.06R
MYRTLE BEACH   SUNNY     75  55  50 SE10      30.05R
N MYRTLE BEACH SUNNY     74  57  55 SE8       30.03S

$$

GAZ063-065-086>088-099>101-113>116-118-119-134>141-150-291700-
...SOUTHEAST GEORGIA...

CITY           SKY/WX    TMP DP  RH WIND       PRES   REMARKS
SAVANNAH ARPT  PTSUNNY   80  55  42 VRB3      30.04S
HUNTER AAF     MOSUNNY   79  61  54 E6        30.02S
FORT STEWART   MOSUNNY   79  58  49 CALM      30.01F
STATESBORO     SUNNY     78  56  46 SE5       30.05S
SYLVANIA       SUNNY    N/A N/A N/A SE3       30.06S
CLAXTON        FAIR      78  59  52 CALM      30.05S

...CSRA...CENTRAL AND FAR SOUTHEAST GEORGIA...

CITY           SKY/WX    TMP DP  RH WIND       PRES   REMARKS
THOMSON        SUNNY     75  50  42 E6        30.12S
AUGUSTA-BUSH   SUNNY     80  52  37 MISG      30.05S
AUGUSTA-DANIEL SUNNY     76  48  37 E6        30.07S
SWAINSBORO     FAIR      77  52  41 CALM      30.07S
VIDALIA        SUNNY     79  57  47 E3        30.06S
EASTMAN        FAIR      81  46  28 SE5       30.08R
HAZLEHURST     FAIR      81  64  57 CALM      30.05S
ALMA           MOSUNNY   81  64  56 CALM      30.04S
WAYCROSS       MOSUNNY   83  68  60 NE7       30.04S
JESUP          FAIR      81  61  50 W5        30.04S
BAXLEY         FAIR      81  64  57 CALM      30.04S
BRUNSWICK      SUNNY     82  66  57 CALM      30.04S
SAINT SIMONS   MOSUNNY   80  64  58 E7        30.04R

$$

SCZ027-028-034-036>038-045-046-048>050-GAZ119-141-291700-
...LAKE AND SUPPLEMENTAL COASTAL OBSERVATIONS...

STATION/POSITION TIME  TEMP    WIND        PRES    WAVE   SWELL
                       AIR SEA DIR/SP/G            HT/PER HT/PER/DIR
                 (UTC) (F)     (DEG/KT/KT) (MB)    (FT/S) (FT/S/D)
WINYAH BAY       1445   69      60/ 10     1017.0
LAKE MURRAY      1520   71      CALM  /  3 1017.9
ACE BASIN NERRS  1445   74      40/  4     1017.0
FORT PULASKI     1548   69 66   60/ 12/ 15 1017.8R
SAPELO ISLAND    1500   76      10/  4     1017.0

$$

ANZ835-935-AMZ111-154-330-350-352-354-370-450-454-472-291700-
...C-MAN AND BUOY OBSERVATIONS...

STATION/POSITION TIME  TEMP    WIND        PRES    WAVE   SWELL
                       AIR SEA DIR/SP/G            HT/PER HT/PER/DIR
                 (UTC) (F)     (DEG/KT/KT) (MB)    (FT/S) (FT/S/D)
BUOY 41004       1450   70 70   40/  8/ 10 1016.1    5/10   5/110/10
BUOY 41008       1450   67 65  320/  6/  8 1016.7    3/10   3/ 90/10
FOLLY BEACH CMAN 1500   68      60/  4/  5 1017.8R
CAPERS NEARSHORE NOT AVBL
FRIPP NEARSHORE  1508   66 63   50/  4/  6 1017.0R


STATION/POSITION TIME  TEMP    WIND        PRES    WAVE   SWELL
                       AIR SEA DIR/SP/G            HT/PER HT/PER/DIR
                 (UTC) (F)     (DEG/KT/KT) (MB)    (FT/S) (FT/S/D)
5E ST. MARYS GA  1530      69                N/A     3/10   2/100/11
FRYING PAN BUOY  1550   68 74  360/ 12/ 16 1016.5R   4/11   3/150/11
BUOY 41025       1550   56 73   20/ 21/ 23 1017.3R   6/10   3/150/10
CAPE LOOKOUT NC  1500   59      30/ 19/ 21 1017.6R
BUOY 41002       1450   71 72  260/ 10/ 12 1014.9    7/11   7/100/11
BUOY 41010       NOT AVBL
ST AUGUSTINE FL  1600   71 68  100/  6/  6 1018.7F


$$



USA.gov is the U.S. government's official web portal to all federal, state and local government web resources and services.